Bel Air, Maryland - USA |
Today's Data File |
5/10/26
Time Wind Dir Wind Spd Wind Gust Hum In Humidity Temp In Temp Raw Barom Wind Chill Press Alt Cloud Base Dens Alt Temp Out R DailyRain 24HrRain RainRate
� mph mph % % �F �F in �F ft ft ft �F/hr in in in/hr
12:00am 60 0 0 40 94 74.0 53.2 29.28 53.2 598 419 375 -1.28 0.00 0.00 0.000
12:01am 60 0 0 40 94 73.8 53.2 29.28 53.2 597 419 374 -1.26 0.00 0.00 0.000
12:02am 60 0 0 40 94 73.8 53.2 29.28 53.2 597 419 374 -1.24 0.00 0.00 0.000
12:03am 60 0 0 40 95 73.8 53.2 29.28 53.2 597 348 374 -1.23 0.00 0.00 0.000
12:04am 60 0 0 40 95 73.8 53.2 29.28 53.2 597 348 374 -1.21 0.00 0.00 0.000
12:05am 60 0 0 40 95 73.8 53.2 29.28 53.2 597 348 374 -1.18 0.00 0.00 0.000
12:06am 60 0 0 40 95 73.8 53.2 29.28 53.2 597 348 374 -1.17 0.00 0.00 0.000
12:07am 60 0 0 40 95 73.8 53.2 29.28 53.2 598 348 375 -1.15 0.00 0.00 0.000
12:08am 60 0 0 40 95 73.8 53.2 29.28 53.2 599 348 376 -1.13 0.00 0.00 0.000
12:09am 60 0 0 40 95 73.8 53.1 29.28 53.1 600 348 371 -1.21 0.00 0.00 0.000
12:10am 60 0 0 40 95 73.8 53.1 29.27 53.1 602 348 373 -1.19 0.00 0.00 0.000
12:11am 60 0 0 40 95 73.8 53.1 29.27 53.1 602 348 373 -1.17 0.00 0.00 0.000
12:12am 60 0 0 40 95 73.8 53.1 29.27 53.1 603 348 374 -1.15 0.00 0.00 0.000
12:13am 60 0 0 40 95 73.8 53.0 29.27 53.0 603 348 367 -1.23 0.00 0.00 0.000
12:14am 60 0 0 40 95 73.8 53.0 29.27 53.0 604 348 369 -1.21 0.00 0.00 0.000
12:15am 60 0 0 40 95 73.8 53.0 29.27 53.0 605 348 370 -1.19 0.00 0.00 0.000
12:16am 60 0 0 40 94 73.8 53.0 29.27 53.0 606 419 371 -1.17 0.00 0.00 0.000
12:17am 60 0 0 40 95 73.8 53.0 29.27 53.0 605 348 370 -1.15 0.00 0.00 0.000
12:18am 60 0 0 40 95 73.8 53.0 29.27 53.0 605 348 370 -1.13 0.00 0.00 0.000
12:19am 60 0 0 40 95 73.8 53.0 29.27 53.0 605 348 370 -1.11 0.00 0.00 0.000
12:20am 60 0 0 40 95 73.8 52.9 29.27 52.9 602 347 360 -1.19 0.00 0.00 0.000
12:21am 60 0 0 40 95 73.8 52.9 29.28 52.9 600 347 357 -1.17 0.00 0.00 0.000
12:22am 60 0 0 40 95 73.8 52.9 29.28 52.9 601 347 359 -1.15 0.00 0.00 0.000
12:23am 60 0 0 40 95 73.8 52.9 29.28 52.9 601 347 359 -1.13 0.00 0.00 0.000
12:24am 60 0 0 40 95 73.8 52.9 29.28 52.9 600 347 357 -1.11 0.00 0.00 0.000
12:25am 60 0 0 40 95 73.8 52.8 29.28 52.8 600 347 351 -1.19 0.00 0.00 0.000
12:26am 60 0 0 40 95 73.8 52.8 29.28 52.8 599 347 350 -1.17 0.00 0.00 0.000
12:27am 60 0 0 40 95 73.8 52.8 29.28 52.8 599 347 350 -1.16 0.00 0.00 0.000
12:28am 60 0 0 40 95 73.8 52.8 29.28 52.8 598 347 348 -1.14 0.00 0.00 0.000
12:29am 60 0 0 40 95 73.8 52.7 29.28 52.7 599 347 343 -1.22 0.00 0.00 0.000
12:30am 60 0 0 40 95 73.8 52.7 29.28 52.7 598 347 342 -1.20 0.00 0.00 0.000
12:31am 60 0 0 40 95 73.8 52.7 29.28 52.7 598 347 342 -1.18 0.00 0.00 0.000
12:32am 60 0 0 40 95 73.8 52.7 29.28 52.7 599 347 343 -1.16 0.00 0.00 0.000
12:33am 60 0 0 40 95 73.8 52.6 29.28 52.6 598 347 335 -1.24 0.00 0.00 0.000
12:34am 60 0 0 40 95 73.8 52.6 29.28 52.6 598 347 335 -1.22 0.00 0.00 0.000
12:35am 60 0 0 40 95 73.8 52.6 29.28 52.6 599 347 336 -1.20 0.00 0.00 0.000
12:36am 60 0 0 40 95 73.8 52.6 29.28 52.6 598 347 335 -1.18 0.00 0.00 0.000
12:37am 60 0 0 40 95 73.8 52.6 29.28 52.6 598 347 335 -1.16 0.00 0.00 0.000
12:38am 60 0 0 40 95 73.8 52.6 29.28 52.6 598 347 335 -1.14 0.00 0.00 0.000
12:39am 60 0 0 40 95 73.8 52.5 29.28 52.5 599 347 330 -1.22 0.00 0.00 0.000
12:40am 60 0 0 40 95 73.8 52.5 29.28 52.5 599 347 330 -1.20 0.00 0.00 0.000
12:41am 60 0 0 40 95 73.8 52.5 29.28 52.5 597 347 327 -1.18 0.00 0.00 0.000
12:42am 60 0 0 40 95 73.8 52.5 29.28 52.5 597 347 327 -1.16 0.00 0.00 0.000
12:43am 60 0 0 40 95 73.8 52.4 29.28 52.4 598 347 322 -1.24 0.00 0.00 0.000
12:44am 60 0 0 40 95 73.8 52.4 29.28 52.4 598 347 322 -1.22 0.00 0.00 0.000
12:45am 60 0 0 40 95 73.8 52.4 29.28 52.4 598 347 322 -1.20 0.00 0.00 0.000
12:46am 60 0 0 40 95 73.8 52.4 29.28 52.4 599 347 323 -1.18 0.00 0.00 0.000
12:47am 60 0 0 40 95 73.8 52.3 29.28 52.3 600 347 317 -1.26 0.00 0.00 0.000
12:48am 60 0 0 40 95 73.8 52.3 29.28 52.3 601 347 319 -1.24 0.00 0.00 0.000
12:49am 60 0 0 40 95 73.8 52.3 29.27 52.3 602 347 320 -1.22 0.00 0.00 0.000
12:50am 60 0 0 40 95 73.8 52.3 29.27 52.3 602 347 320 -1.20 0.00 0.00 0.000
12:51am 60 0 0 40 95 73.8 52.3 29.27 52.3 602 347 320 -1.18 0.00 0.00 0.000
12:52am 60 0 0 40 95 73.8 52.3 29.27 52.3 602 347 320 -1.16 0.00 0.00 0.000
12:53am 60 0 0 40 95 73.8 52.3 29.27 52.3 603 347 321 -1.14 0.00 0.00 0.000
12:54am 60 0 0 40 95 73.8 52.3 29.27 52.3 603 347 321 -1.12 0.00 0.00 0.000
12:55am 60 0 0 40 96 73.8 52.3 29.27 52.3 603 276 321 -1.10 0.00 0.00 0.000
12:56am 60 0 0 40 96 73.8 52.3 29.27 52.3 603 276 321 -1.08 0.00 0.00 0.000
12:57am 60 0 0 40 96 73.8 52.4 29.27 52.4 603 276 328 -0.97 0.00 0.00 0.000
12:58am 60 0 0 40 96 73.8 52.4 29.27 52.4 603 276 328 -0.95 0.00 0.00 0.000
12:59am 60 0 0 40 95 73.8 52.4 29.27 52.4 603 347 328 -0.93 0.00 0.00 0.000
1:00am 60 0 0 40 96 73.8 52.3 29.27 52.3 602 276 320 -1.02 0.00 0.00 0.000
1:01am 60 0 0 40 96 73.8 52.4 29.27 52.4 602 276 326 -0.90 0.00 0.00 0.000
1:02am 60 0 0 40 95 73.8 52.4 29.27 52.4 602 347 326 -0.89 0.00 0.00 0.000
1:03am 60 0 0 40 95 73.8 52.4 29.27 52.4 602 347 326 -0.87 0.00 0.00 0.000
1:04am 60 0 0 40 95 73.8 52.4 29.28 52.4 601 347 325 -0.86 0.00 0.00 0.000
1:05am 60 0 0 40 96 73.8 52.4 29.27 52.4 602 276 326 -0.84 0.00 0.00 0.000
1:06am 60 0 0 40 96 73.8 52.3 29.28 52.3 601 276 319 -0.93 0.00 0.00 0.000
1:07am 60 0 0 40 96 73.8 52.4 29.28 52.4 601 276 325 -0.81 0.00 0.00 0.000
1:08am 60 0 0 40 96 73.8 52.4 29.27 52.4 602 276 326 -0.80 0.00 0.00 0.000
1:09am 60 0 0 40 96 73.8 52.3 29.27 52.3 603 276 321 -0.88 0.00 0.00 0.000
1:10am 60 0 0 40 96 74.0 52.4 29.27 52.4 604 276 329 -0.77 0.00 0.00 0.000
1:11am 60 0 0 40 96 74.0 52.4 29.27 52.4 604 276 329 -0.76 0.00 0.00 0.000
1:12am 60 0 0 40 96 74.0 52.5 29.27 52.5 605 276 337 -0.64 0.00 0.00 0.000
1:13am 60 0 0 40 96 73.8 52.5 29.27 52.5 605 276 337 -0.63 0.00 0.00 0.000
1:14am 60 0 0 40 96 73.8 52.5 29.27 52.5 606 276 338 -0.62 0.00 0.00 0.000
1:15am 60 0 0 40 96 73.8 52.6 29.27 52.6 607 276 345 -0.51 0.00 0.00 0.000
1:16am 60 0 0 40 96 73.8 52.6 29.27 52.6 607 276 345 -0.51 0.00 0.00 0.000
1:17am 60 0 0 40 96 73.8 52.6 29.27 52.6 607 276 345 -0.50 0.00 0.00 0.000
1:18am 60 0 0 40 96 73.8 52.7 29.27 52.7 607 276 352 -0.39 0.00 0.00 0.000
1:19am 60 0 0 40 96 73.8 52.6 29.27 52.6 608 276 347 -0.48 0.00 0.00 0.000
1:20am 60 0 0 40 96 73.8 52.6 29.27 52.6 608 276 347 -0.48 0.00 0.00 0.000
1:21am 60 0 0 40 96 73.8 52.6 29.27 52.6 609 276 348 -0.47 0.00 0.00 0.000
1:22am 60 0 0 40 96 73.8 52.6 29.27 52.6 609 276 349 -0.46 0.00 0.00 0.000
1:23am 60 0 0 40 95 73.8 52.6 29.27 52.6 609 347 348 -0.45 0.00 0.00 0.000
1:24am 60 0 0 40 95 73.8 52.6 29.27 52.6 609 347 349 -0.45 0.00 0.00 0.000
1:25am 60 0 0 40 95 73.8 52.6 29.27 52.6 609 347 349 -0.44 0.00 0.00 0.000
1:26am 60 0 0 40 95 73.8 52.5 29.27 52.5 609 347 342 -0.53 0.00 0.00 0.000
1:27am 60 0 0 40 95 73.8 52.5 29.27 52.5 609 347 342 -0.52 0.00 0.00 0.000
1:28am 60 0 0 40 95 73.8 52.5 29.27 52.5 609 347 342 -0.51 0.00 0.00 0.000
1:29am 60 0 0 40 95 73.8 52.4 29.27 52.4 609 347 336 -0.60 0.00 0.00 0.000
1:30am 60 0 0 40 95 73.8 52.4 29.27 52.4 609 347 336 -0.59 0.00 0.00 0.000
1:31am 60 0 0 40 95 73.8 52.4 29.27 52.4 609 347 336 -0.58 0.00 0.00 0.000
1:32am 60 0 0 40 95 73.8 52.3 29.27 52.3 609 347 329 -0.67 0.00 0.00 0.000
1:33am 60 0 0 40 95 73.8 52.3 29.27 52.3 609 347 329 -0.66 0.00 0.00 0.000
1:34am 60 0 0 40 95 73.8 52.3 29.27 52.3 609 347 329 -0.65 0.00 0.00 0.000
1:35am 60 0 0 40 95 73.8 52.3 29.27 52.3 609 347 329 -0.64 0.00 0.00 0.000
1:36am 60 0 0 40 96 73.8 52.2 29.27 52.2 609 276 322 -0.73 0.00 0.00 0.000
1:37am 60 0 0 40 96 73.8 52.2 29.27 52.2 609 276 322 -0.71 0.00 0.00 0.000
1:38am 60 0 0 40 96 74.0 52.2 29.27 52.2 609 276 322 -0.70 0.00 0.00 0.000
1:39am 60 0 0 40 96 74.0 52.1 29.27 52.1 609 276 316 -0.79 0.00 0.00 0.000
1:40am 60 0 0 40 96 74.0 52.1 29.27 52.1 609 276 316 -0.78 0.00 0.00 0.000
1:41am 60 0 0 40 96 74.0 52.1 29.27 52.1 610 276 317 -0.77 0.00 0.00 0.000
1:42am 60 0 0 40 96 74.0 52.1 29.27 52.1 609 276 316 -0.75 0.00 0.00 0.000
1:43am 60 0 0 40 95 74.0 52.1 29.27 52.1 609 346 316 -0.74 0.00 0.00 0.000
1:44am 60 0 0 40 95 74.0 52.0 29.27 52.0 610 346 310 -0.83 0.00 0.00 0.000
1:45am 60 0 0 40 95 74.0 52.0 29.27 52.0 609 346 309 -0.82 0.00 0.00 0.000
1:46am 60 0 0 40 95 74.0 52.0 29.27 52.0 609 346 309 -0.80 0.00 0.00 0.000
1:47am 60 0 0 40 96 73.8 52.0 29.27 52.0 609 275 309 -0.79 0.00 0.00 0.000
1:48am 60 0 0 40 96 73.8 52.0 29.27 52.0 609 275 309 -0.78 0.00 0.00 0.000
1:49am 60 0 0 40 96 73.8 52.0 29.27 52.0 609 275 309 -0.76 0.00 0.00 0.000
1:50am 60 0 0 40 95 73.8 51.9 29.27 51.9 609 346 301 -0.85 0.00 0.00 0.000
1:51am 60 0 0 40 95 73.8 51.9 29.27 51.9 609 346 302 -0.84 0.00 0.00 0.000
1:52am 60 0 0 40 95 73.8 51.9 29.27 51.9 609 346 302 -0.82 0.00 0.00 0.000
1:53am 60 0 0 40 95 73.8 51.8 29.27 51.8 609 346 296 -0.90 0.00 0.00 0.000
1:54am 60 0 0 40 95 73.8 51.9 29.27 51.9 609 346 302 -0.79 0.00 0.00 0.000
1:55am 60 0 0 40 95 74.0 51.8 29.27 51.8 609 346 296 -0.88 0.00 0.00 0.000
1:56am 60 0 0 40 96 74.0 51.8 29.27 51.8 609 275 296 -0.86 0.00 0.00 0.000
1:57am 60 0 0 40 96 74.0 51.7 29.27 51.7 609 275 289 -0.95 0.00 0.00 0.000
1:58am 60 0 0 40 96 74.0 51.7 29.27 51.7 609 275 289 -0.93 0.00 0.00 0.000
1:59am 60 0 0 40 96 74.0 51.7 29.27 51.7 609 275 289 -0.92 0.00 0.00 0.000
2:00am 60 0 0 40 96 74.0 51.7 29.27 51.7 609 275 289 -0.90 0.00 0.00 0.000
2:01am 60 0 0 40 96 74.0 51.6 29.27 51.6 609 275 282 -0.99 0.00 0.00 0.000
2:02am 60 0 0 40 96 74.0 51.6 29.27 51.6 609 275 282 -0.97 0.00 0.00 0.000
2:03am 60 0 0 40 96 74.0 51.6 29.27 51.6 609 275 282 -0.95 0.00 0.00 0.000
2:04am 60 0 0 40 96 74.0 51.6 29.27 51.6 609 275 282 -0.94 0.00 0.00 0.000
2:05am 60 0 0 40 96 74.0 51.5 29.27 51.5 609 275 276 -1.02 0.00 0.00 0.000
|
Data provided from: Mark Hofmann's Bel Air, MD Weather Station |